IOD1_STARTICAL

Satellite information

Favourite Embed

Satellite Type and Status

PAYLOADIN ORBIT

Key statistics

Satellite IOD1_STARTICAL at a glance.

Uptime

115

Days in orbit

Revolutions

≈ 15.3

Per day

Orbit

SSO

Sun Synchronous Orbit

Inclination

97.4

Latest

Satellite identification and parameters

Extended collection of information and parameters for IOD1_STARTICAL.

Object identification

Identified? True

Debris? False

Object name: IOD1_STARTICAL

International designator: 2025-052C

Object number (NORAD): 63212

Object ID (CCSDS): 63212

Country: SPAIN (SPN)

Current information (Y/N): Y

RCS size: MEDIUM

Orbital parameters

Period: 94.416 minutes

Inclination: 97.4244 deg

SMA: 6868.451 km

Apoapsis: 490.746 km

Periapsis: 489.885 km

RAAN: 82.5708 deg

Eccentricy: 0.0000627

Argument of periapsis: 226.4737 deg

Mean anomaly: 133.6449 deg

Mean motion: 15.25157168 rev/day

Mean motion (dot): 0.0002408 rev/day2

B* drag term: 0.00096114 1/REarth

Two-line elements (TLE)

Creation date: July 8, 2025, 2:27 a.m.

Reference frame: TEME

Reference center: EARTH

Epoch: July 7, 2025, 4:07 p.m. UTC

TLE line 0: 0 IOD1_STARTICAL

TLE line 1: 1 63212U 25052C 25188.67213425 .00024080 00000-0 96114-3 0 9990

TLE line 2: 2 63212 97.4244 82.5708 0000627 226.4737 133.6449 15.25157168 17540

Live tracking on map

Real-time ground track for satellite IOD1_STARTICAL.

In-orbit conjunctions

There are no conjunctions computed for IOD1_STARTICAL, at the moment. Check back to stay up to date, as we update our databases every day.

Go to all conjunctions

Associated space launch

Dedicated rideshare flight to a sun-synchronous orbit with dozens of small microsatellites and nanosatellites for commercial and government customers.

IOD1_STARTICAL was lifted into orbit during the mission ‘Falcon 9 Block 5 | Transporter 13 (Dedicated SSO Rideshare)’, on board a Falcon 9 space rocket.

The launch took place on March 15, 2025, 6:43 a.m. from Space Launch Complex 4E.

For more information about the launch, click the button.

Launch to space Falcon 9 Block 5 | Transporter 13 (Dedicated SSO Rideshare)
Falcon 9 Block 5 | Transporter 13 (Dedicated SSO Rideshare)

Agency: SpaceX

Status: Launch Successful

Launch date: March 15, 2025, 6:43 a.m. UTC

Rocket: Falcon 9

Launch pad: Space Launch Complex 4E

Location: Vandenberg SFB, CA, USA

...

Latest news about this satellite

News about space launch
Varda Space reentry capsule lands in Australia, completes hypersonic research mission

W-3 focused on gathering data for military hypersonic research. The post Varda Space reentry capsule lands in Australia, completes hypersonic research mission appeared first on SpaceNews.

News about space launch
Intelligence and dual-use commercial satellites launch on Transporter-13

Among the 74 payloads on SpaceX’s Transporter-13 mission was a technology demonstrator from the National Reconnaissance Office The post Intelligence and dual-use commercial satellites launch on Transporter-13 appeared first on SpaceNews.

News about space launch
NASA’s EZIE Launches on Mission to Study Earth’s Electrojets

Under the nighttime California sky, NASA’s EZIE (Electrojet Zeeman Imaging Explorer) mission launched aboard a SpaceX Falcon 9 rocket at 11:43 p.m. PDT on March 14. Taking off from Vandenberg Space Force Base near Santa Barbara, the EZIE mission’s trio of...


Newsletter sign-up

Weekly statistics, charts and insights to help you stay on top of the space industry.